Flag for Libya Weather past 2 weeks in Tripoli, Libya

61 °F

Passing clouds.

Feels Like: 61 °F
Forecast: 64 / 66 °F
Wind: 20 mph from Northeast

Location: Djerba Mellita

Current Time: Nov 30, 2015 at 1:53:28 AM

Latest Report: Nov 30, 2015 at 1:00 AM

Visibility: 5 mi

Pressure: 30.45 "Hg

Humidity: 52%

Dew point: 43 °F

Location of TripoliLocation

Historic Weather in Tripoli — Graph


Tripoli temperature yesterday

Maximum temperature yesterday: 66 °F (at 2:00 PM)
Minimum temperature yesterday: 52 °F (at 12:00 AM)
Average temperature yesterday: 61 °F

Past Weeks' High & Low Weather Summary

High75 °F (Nov 24, 12:30 PM)94% (Nov 23, 6:00 AM)30.45 "Hg (Nov 23, 6:00 AM)
Low52 °F (Nov 28, 10:30 PM)37% (Nov 27, 3:00 AM)29.65 "Hg (Nov 22, 5:30 AM)
Average65 °F63%30.05 "Hg
* Reported Midnight between Nov 14 and Nov 15 — Nov 30 12:30 AM, Tripoli, Weather by CustomWeather, © 2015

Note: Actual official high and low records may vary slightly from our data, if they occured in-between our weather recording intervals... More about our weather records


Tripoli weather history for previous 24 hours

Time TempWeatherWind HumidityBarometerVisibility
12:30 AM
Mon, Nov 30
61 °FPassing clouds.15 mph59%30.45 "Hg5 mi
12:00 AM61 °FPassing clouds.12 mph59%30.45 "Hg5 mi
11:30 PM
Sun, Nov 29
61 °FPassing clouds.13 mph63%30.45 "Hg5 mi
11:00 PM61 °FPassing clouds.5 mph72%30.45 "Hg5 mi
10:30 PM57 °FPassing clouds.5 mph77%30.45 "Hg5 mi
10:00 PM59 °FPassing clouds.2 mph72%30.42 "Hg5 mi
9:30 PM57 °FPassing clouds.3 mph77%30.42 "HgN/A
9:00 PM57 °FPassing clouds.3 mph77%30.42 "HgN/A
8:30 PM57 °FPassing clouds.3 mph77%30.39 "HgN/A
8:00 PM59 °FPassing clouds.3 mph72%30.39 "HgN/A
7:30 PM61 °FPassing clouds.No wind68%30.39 "HgN/A
7:00 PM61 °FPassing clouds.5 mph63%30.36 "HgN/A
6:30 PM63 °FPassing clouds.5 mph64%30.36 "HgN/A
6:00 PM64 °FPassing clouds.3 mph56%30.36 "HgN/A
5:30 PM66 °FPassing clouds.5 mph52%30.36 "HgN/A
5:00 PM66 °FPassing clouds.3 mph52%30.36 "HgN/A
4:30 PM66 °FPassing clouds.6 mph52%30.36 "HgN/A
4:00 PM66 °FPassing clouds.6 mph56%30.33 "HgN/A
3:30 PM66 °FPassing clouds.8 mph52%30.33 "HgN/A
3:00 PM66 °FPassing clouds.7 mph56%30.33 "HgN/A
2:30 PM66 °FPassing clouds.7 mph52%30.33 "HgN/A
2:00 PM66 °FPassing clouds.8 mph52%30.33 "HgN/A
1:30 PM64 °FPassing clouds.10 mph56%30.33 "HgN/A
1:00 PM64 °FScattered clouds.10 mph56%30.36 "HgN/A
12:30 PM64 °FScattered clouds.12 mph52%30.36 "HgN/A
11:30 AM64 °FPassing clouds.12 mph52%30.36 "HgN/A
11:00 AM64 °FPassing clouds.12 mph56%30.33 "HgN/A
10:30 AM63 °FPassing clouds.12 mph59%30.33 "HgN/A
10:00 AM63 °FPassing clouds.12 mph59%30.33 "HgN/A
9:00 AM61 °FPassing clouds.12 mph63%30.30 "HgN/A
8:30 AM57 °FPassing clouds.9 mph67%30.30 "HgN/A
8:00 AM57 °FPassing clouds.8 mph67%30.27 "Hg5 mi
7:00 AM57 °FPassing clouds.8 mph67%30.27 "Hg5 mi
6:30 AM57 °FPassing clouds.8 mph63%30.24 "Hg5 mi
6:00 AM59 °FPassing clouds.12 mph63%30.24 "Hg5 mi
5:30 AM57 °FPassing clouds.9 mph63%30.24 "Hg5 mi
5:00 AM59 °FPassing clouds.9 mph59%30.24 "Hg5 mi
4:30 AM59 °FPassing clouds.7 mph55%30.24 "Hg5 mi
4:00 AM57 °FPassing clouds.9 mph59%30.24 "Hg5 mi
3:30 AM59 °FPassing clouds.9 mph59%30.24 "Hg5 mi
3:00 AM59 °FPassing clouds.8 mph63%30.24 "Hg5 mi
2:30 AM59 °FPassing clouds.8 mph59%30.24 "Hg5 mi
2:00 AM59 °FPassing clouds.9 mph55%30.24 "Hg5 mi
1:30 AM55 °FPassing clouds.9 mph67%30.24 "Hg5 mi
1:00 AM55 °FPassing clouds.8 mph72%30.24 "Hg5 mi
Weather by CustomWeather, © 2015

See weather overviewHow to use our weather pages